Montreal Mirabel, Quebec

4:14 AM EDT on May 27, 2017 (GMT -0400)
Montreal Mirabel

Weather History for CYMX - January, 2015

Change the Weather History Date:

Friday, January 23, 2015

  Actual Average Record
Temperature  
Mean Temperature 19 °F -  
Max Temperature 30 °F 15 °F 42 °F (1997)
Min Temperature 8 °F 0 °F -23 °F (2013)
Degree Days  
Heating Degree Days 46    
Moisture  
Dew Point 14 °F    
Average Humidity 77    
Maximum Humidity 93    
Minimum Humidity 59    
Precipitation  
Precipitation 0.00 in - - ()
Sea Level Pressure  
Sea Level Pressure 30.01 in    
Wind  
Wind Speed 7 mph ()    
Max Wind Speed 16 mph    
Max Gust Speed 25 mph    
Visibility 11.7 miles    
Events Snow    
Averages and records for this station are not official NWS values.
T = Trace of Precipitation, MM = Missing Value Source: Averaged Metar Reports

Daily Weather History Graph

Daily Weather History Graph

Search for Another Location

Airport or City:

Trip Planner

Search our weather history database for the weather conditions in past years. The results will help you decide how hot, cold, wet, or windy it might be!

Date:

Astronomy

Jan. 23, 2015 Rise Set
Actual Time 7:27 AM EST 4:49 PM EST
Civil Twilight 6:54 AM EST 5:21 PM EST
Nautical Twilight 6:18 AM EST 5:57 PM EST
Astronomical Twilight 5:43 AM EST 6:33 PM EST
Moon 9:04 AM EST (1/23) 9:09 PM EST (1/23)
Length of Visible Light 10h 26m
Length of Day
9h 21m
Waxing Crescent, 14% of the Moon is Illuminated
Jan 23
Waxing Crescent
Jan 26
First Quarter
Feb 3
Full
Feb 11
Last Quarter
Feb 18
New

Hourly Weather History & Observations

Time (EST) Temp. Windchill Dew Point Humidity Pressure Visibility Wind Dir Wind Speed Gust Speed Precip Events Conditions
12:00 AM 8.6 °F -4.7 °F 1.4 °F 73% 30.27 in 25.0 mi SSW 9.2 mph - N/A   Mostly Cloudy
1:00 AM 8.6 °F 0.1 °F 1.4 °F 73% 30.25 in 25.0 mi SW 4.6 mph - N/A   Mostly Cloudy
2:00 AM 10.4 °F -0.4 °F 3.2 °F 73% 30.25 in 25.0 mi SW 6.9 mph - N/A   Mostly Cloudy
3:00 AM 10.4 °F 2.2 °F 3.2 °F 73% 30.24 in 25.0 mi SW 4.6 mph - N/A   Overcast
4:00 AM 8.6 °F -1.3 °F 3.2 °F 79% 30.22 in 25.0 mi SW 5.8 mph - N/A   Overcast
5:00 AM 8.6 °F 2.0 °F 3.2 °F 79% 30.19 in 25.0 mi SW 3.5 mph - N/A   Overcast
6:00 AM 8.6 °F -2.6 °F 3.2 °F 79% 30.18 in 20.0 mi SSW 6.9 mph - N/A   Overcast
7:00 AM 8.6 °F 2.0 °F 3.2 °F 79% 30.18 in 20.0 mi SW 3.5 mph - N/A   Mostly Cloudy
8:00 AM 8.6 °F 0.1 °F 5.0 °F 85% 30.17 in 20.0 mi SW 4.6 mph - N/A   Mostly Cloudy
9:00 AM 12.2 °F 2.9 °F 6.8 °F 79% 30.15 in 7.0 mi SW 5.8 mph - N/A   Overcast
10:00 AM 14.0 °F 3.9 °F 10.4 °F 86% 30.13 in 7.0 mi SW 6.9 mph - N/A   Overcast
11:00 AM 15.8 °F 7.2 °F 10.4 °F 79% 30.09 in 10.0 mi SSW 5.8 mph - N/A   Mostly Cloudy
12:00 PM 24.8 °F 15.3 °F 15.8 °F 69% 30.04 in 10.0 mi SW 9.2 mph - N/A   Mostly Cloudy
1:00 PM 28.4 °F 19.1 °F 15.8 °F 59% 29.99 in 20.0 mi SW 10.4 mph - N/A   Mostly Cloudy
2:00 PM 30.2 °F 18.9 °F 17.6 °F 60% 29.94 in 20.0 mi SSW 16.1 mph 23.0 mph N/A   Mostly Cloudy
3:00 PM 30.2 °F 18.9 °F 21.2 °F 69% 29.92 in 20.0 mi SW 16.1 mph 25.3 mph N/A   Mostly Cloudy
4:00 PM 30.2 °F 20.8 °F 19.4 °F 64% 29.91 in 20.0 mi SW 11.5 mph 23.0 mph N/A   Overcast
5:00 PM 30.2 °F 20.2 °F 21.2 °F 69% 29.88 in 15.0 mi SW 12.7 mph 23.0 mph N/A   Overcast
5:45 PM 28.4 °F 20.4 °F 21.2 °F 74% 29.89 in 4.0 mi SW 8.1 mph 18.4 mph N/A Snow Light Snow
6:00 PM 28.4 °F 18.5 °F 21.2 °F 74% 29.89 in 6.0 mi SW 11.5 mph 19.6 mph N/A Snow Light Snow
6:50 PM 26.6 °F 16.8 °F 24.8 °F 93% 29.89 in 2.0 mi SW 10.4 mph - N/A Snow Light Snow
7:00 PM 26.6 °F 17.5 °F 24.8 °F 93% 29.89 in 2.0 mi SW 9.2 mph 17.3 mph N/A Snow Light Snow
8:00 PM 26.6 °F 16.8 °F 24.8 °F 93% 29.86 in 2.0 mi SW 10.4 mph 17.3 mph N/A Snow Light Snow
9:00 PM 26.6 °F 16.2 °F 24.8 °F 93% 29.85 in 3.0 mi SW 11.5 mph 18.4 mph N/A Snow Light Snow
9:41 PM 26.6 °F 16.8 °F 21.2 °F 80% 29.83 in 10.0 mi SW 10.4 mph 18.4 mph N/A Snow Light Snow
10:00 PM 26.6 °F 19.1 °F 21.2 °F 80% 29.82 in 10.0 mi SW 6.9 mph 17.3 mph N/A Snow Light Snow
10:47 PM 28.4 °F 18.0 °F 19.4 °F 69% 29.80 in 15.0 mi SW 12.7 mph - N/A   Overcast
11:00 PM 26.6 °F 17.5 °F 19.4 °F 74% 29.80 in 15.0 mi SW 9.2 mph 18.4 mph N/A   Overcast
11:30 PM 26.6 °F 16.2 °F 19.4 °F 74% 29.78 in 10.0 mi SW 11.5 mph 17.3 mph N/A Snow Light Snow